Weather History for PHTO - September, 2012

Change the Weather History Date:

Thursday, September 13, 2012

  Actual Average Record
Temperature  
Mean Temperature 74 °F 76 °F  
Max Temperature 81 °F 83 °F 88 °F (1971)
Min Temperature 67 °F 69 °F 65 °F (1951)
Degree Days  
Heating Degree Days 0 0  
Month to date heating degree days 0 0  
Since 1 July heating degree days 0 0  
Cooling Degree Days 9 11  
Month to date cooling degree days 134 143  
Year to date cooling degree days 2169 2215  
Growing Degree Days 24 (Base 50)    
Moisture  
Dew Point 66 °F    
Average Humidity 81    
Maximum Humidity 100    
Minimum Humidity 62    
Precipitation  
Precipitation 0.12 in 0.34 in 2.76 in (1973)
Month to date precipitation 2.30 4.11  
Year to date precipitation 67.89 84.05  
Snow  
Snow 0.00 in - - ()
Month to date snowfall 0.0  
Since 1 July snowfall 0.0  
Since 1 September snowfall 0.0  
Snow Depth 0.00 in    
Sea Level Pressure  
Sea Level Pressure 30.05 in    
Wind  
Wind Speed 6 mph (WSW)    
Max Wind Speed 17 mph    
Max Gust Speed 22 mph    
Visibility 9 miles    
Events Rain    
T = Trace of Precipitation, MM = Missing Value Source: NWS Daily Summary

Daily Weather History Graph

Daily Weather History Graph

Search for Another Location

Airport or City:

Trip Planner

Search our weather history database for the weather conditions in past years. The results will help you decide how hot, cold, wet, or windy it might be!

Date:

Astronomy

Sep. 13, 2012 Rise Set
Actual Time 6:07 AM HST 6:23 PM HST
Civil Twilight 5:45 AM HST 6:46 PM HST
Nautical Twilight 5:19 AM HST 7:11 PM HST
Astronomical Twilight 4:53 AM HST 7:37 PM HST
Moon 3:52 AM HST (9/13) 4:43 PM HST (9/13)
Length of Visible Light 13h 00m
Length of Day
12h 16m
Waning Crescent, 6% of the Moon is Illuminated
Sep 13
Waning Crescent
Sep 15
New
Sep 22
First Quarter
Sep 29
Full
Oct 7
Last Quarter

Hourly Weather History & Observations

Time (HST) Temp. Heat Index Dew Point Humidity Pressure Visibility Wind Dir Wind Speed Gust Speed Precip Events Conditions
12:53 AM 69.1 °F - 66.0 °F 90% 30.06 in 4.0 mi SSW 4.6 mph - 0.00 in Rain Light Rain
1:53 AM 68.0 °F - 64.0 °F 87% 30.04 in 10.0 mi WSW 5.8 mph - 0.01 in   Overcast
2:53 AM 71.1 °F - 66.0 °F 84% 30.03 in 10.0 mi NW 9.2 mph - N/A   Overcast
3:40 AM 69.8 °F - 66.2 °F 88% 30.03 in 10.0 mi SE 5.8 mph - 0.00 in Rain Light Rain
3:53 AM 69.1 °F - 66.0 °F 90% 30.03 in 7.0 mi SSE 4.6 mph - 0.00 in Rain Light Rain
4:17 AM 68.0 °F - 66.2 °F 94% 30.05 in 2.5 mi SE 6.9 mph - 0.01 in Rain Rain
4:31 AM 68.0 °F - 66.2 °F 94% 30.04 in 4.0 mi WNW 4.6 mph - 0.07 in Rain Light Rain
4:53 AM 66.9 °F - 66.0 °F 97% 30.05 in 10.0 mi SW 3.5 mph - 0.07 in   Overcast
5:12 AM 68.0 °F - 66.2 °F 94% 30.06 in 3.0 mi Calm Calm - 0.02 in Rain Light Rain
5:24 AM 68.0 °F - 66.2 °F 94% 30.06 in 5.0 mi WSW 6.9 mph - 0.03 in Rain Light Rain
5:53 AM 68.0 °F - 66.0 °F 93% 30.05 in 10.0 mi WSW 6.9 mph - 0.03 in   Mostly Cloudy
6:53 AM 70.0 °F - 66.0 °F 87% 30.07 in 10.0 mi WSW 6.9 mph - N/A   Mostly Cloudy
7:53 AM 73.0 °F - 66.9 °F 81% 30.07 in 10.0 mi Calm Calm - N/A   Mostly Cloudy
8:53 AM 77.0 °F - 66.9 °F 71% 30.08 in 10.0 mi Calm Calm - 0.00 in   Mostly Cloudy
9:32 AM 75.2 °F - 66.2 °F 73% 30.08 in 10.0 mi WNW 4.6 mph - 0.00 in   Mostly Cloudy
9:39 AM 75.2 °F - 68.0 °F 78% 30.08 in 10.0 mi West 6.9 mph - 0.00 in   Mostly Cloudy
9:53 AM 75.9 °F - 68.0 °F 76% 30.07 in 10.0 mi West 8.1 mph - 0.00 in   Mostly Cloudy
10:53 AM 80.1 °F 82.1 °F 66.0 °F 62% 30.06 in 10.0 mi NNW 5.8 mph - N/A   Scattered Clouds
11:53 AM 75.0 °F - 70.0 °F 84% 30.07 in 7.0 mi East 12.7 mph - 0.00 in Rain Light Rain
12:00 PM 73.4 °F - 69.8 °F 88% 30.07 in 6.0 mi East 8.1 mph - 0.00 in Rain Light Rain
12:53 PM 75.9 °F - 68.0 °F 76% 30.04 in 10.0 mi WNW 6.9 mph - 0.01 in   Mostly Cloudy
1:53 PM 80.1 °F 82.1 °F 66.0 °F 62% 30.01 in 10.0 mi NW 5.8 mph - N/A   Mostly Cloudy
2:53 PM 79.0 °F - 66.0 °F 64% 30.00 in 10.0 mi Calm Calm - N/A   Mostly Cloudy
3:53 PM 79.0 °F - 66.0 °F 64% 30.00 in 10.0 mi Variable 3.5 mph - N/A   Mostly Cloudy
4:53 PM 77.0 °F - 66.0 °F 69% 30.01 in 10.0 mi Calm Calm - N/A   Mostly Cloudy
5:53 PM 77.0 °F - 64.9 °F 66% 30.01 in 10.0 mi ESE 3.5 mph - N/A   Overcast
6:53 PM 73.9 °F - 66.0 °F 76% 30.04 in 10.0 mi SW 4.6 mph - N/A   Overcast
7:53 PM 71.1 °F - 63.0 °F 75% 30.06 in 10.0 mi SW 3.5 mph - N/A   Clear
8:49 PM 69.8 °F - 66.2 °F 88% 30.08 in 4.0 mi Calm Calm - 0.02 in Rain Rain
8:53 PM 70.0 °F - 66.9 °F 90% 30.08 in 5.0 mi SW 3.5 mph - 0.03 in Rain Light Rain
9:04 PM 69.8 °F - 66.2 °F 88% 30.08 in 10.0 mi WSW 5.8 mph - 0.00 in Rain Light Rain
9:53 PM 69.1 °F - 64.0 °F 84% 30.09 in 10.0 mi West 9.2 mph - 0.00 in   Overcast
10:53 PM 69.1 °F - 63.0 °F 81% 30.09 in 10.0 mi SW 5.8 mph - N/A   Scattered Clouds
11:53 PM 69.1 °F - 63.0 °F 81% 30.07 in 10.0 mi WSW 6.9 mph - N/A   Mostly Cloudy